Total_Precipitation_Accumulation
2.73 3.01 3.01 2.92 2.90 3.04 2.98 2.81 2.59 2.58 2.58 2.42 2.27 2.33 2.39 2.39 2.52 2.70 2.86 2.80 2.77 3.04 3.50 3.77 3.83 3.68 3.57 3.51 3.43 3.28 3.10 2.97 2.91 2.79 2.69 2.57 2.45 2.38 2.34 2.33 2.30 2.12 2.06
3.32 3.49 3.45 3.29 3.11 3.22 3.19 3.09 2.95 3.03 3.03 2.99 2.79 2.67 2.58 2.63 2.62 2.71 2.96 3.17 3.02 2.97 3.40 3.96 4.25 4.22 4.05 3.88 3.63 3.35 3.24 3.18 3.11 2.98 2.87 2.69 2.46 2.41 2.42 2.42 2.42 2.25 2.12
3.88 3.96 3.96 3.64 3.40 3.44 3.66 3.66 3.57 3.52 3.24 3.15 3.05 3.00 2.90 2.75 2.72 2.80 3.05 3.49 3.41 3.46 3.63 3.69 3.84 3.93 4.04 4.16 4.12 3.86 3.59 3.40 3.29 3.20 3.11 2.99 2.78 2.56 2.50 2.51 2.57 2.50 2.31
3.93 4.09 4.07 3.91 3.77 3.73 4.00 4.15 4.10 4.03 3.83 3.72 3.51 3.28 3.08 3.01 2.95 3.07 3.21 3.48 3.76 3.73 3.92 3.79 3.56 3.56 3.83 4.05 4.18 4.21 4.02 3.69 3.48 3.52 3.50 3.35 3.08 2.90 2.73 2.61 2.62 2.60 2.49
4.24 4.36 4.25 4.25 4.28 4.38 4.37 4.12 4.26 4.11 4.11 3.99 3.51 3.34 3.08 3.00 3.13 3.10 3.22 3.35 3.56 3.59 3.65 3.63 3.61 3.52 3.66 3.99 4.07 4.27 4.26 4.11 3.89 3.76 3.83 3.73 3.48 3.22 2.98 2.78 2.62 2.55 2.51
4.65 4.95 4.91 4.83 4.80 4.78 4.59 4.51 4.55 4.30 4.11 3.98 3.51 3.31 3.11 2.96 2.92 3.02 3.02 3.09 3.15 3.08 3.07 3.17 3.46 3.36 3.47 3.62 3.68 3.86 4.13 4.25 4.07 3.85 3.78 3.85 3.67 3.29 2.95 2.82 2.72 2.62 2.56
5.49 5.56 5.36 5.23 5.08 5.04 4.94 4.89 4.76 4.54 4.23 4.12 4.08 3.70 3.17 2.90 2.84 2.76 2.76 2.85 2.95 2.94 2.92 2.94 2.93 2.91 2.95 3.15 3.20 3.34 3.62 3.97 4.04 3.99 3.95 3.87 3.76 3.46 3.08 2.83 2.77 2.73 2.65
5.67 5.58 5.64 5.58 5.43 5.31 5.14 4.94 4.82 4.61 4.22 4.13 4.15 4.07 3.60 3.22 2.79 2.41 2.40 2.49 2.67 2.85 2.70 2.57 2.64 2.69 2.65 2.77 2.78 3.07 3.29 3.51 3.78 3.91 3.82 3.68 3.54 3.45 3.37 3.19 3.01 2.91 2.83
5.80 5.63 5.53 5.34 5.23 5.11 5.01 4.83 4.65 4.48 4.23 4.07 4.02 4.17 3.87 3.40 2.93 2.59 2.25 2.20 2.35 2.49 2.41 2.39 2.34 2.40 2.48 2.62 2.61 2.78 2.94 2.96 3.32 3.62 3.71 3.56 3.39 3.26 3.21 3.19 3.15 3.11 3.04
5.38 5.14 5.06 4.99 4.86 4.51 4.32 4.15 4.12 3.97 3.83 3.63 3.66 3.60 3.45 3.24 3.25 3.14 2.85 2.61 2.55 2.53 2.45 2.32 2.24 2.31 2.32 2.48 2.65 2.65 2.62 2.60 2.85 3.16 3.41 3.49 3.35 3.33 3.30 3.25 3.22 3.21 3.22
4.79 4.51 4.42 4.32 4.09 3.70 3.34 3.23 3.39 3.42 3.41 3.31 3.31 3.33 3.31 3.13 3.06 3.09 3.03 2.93 2.85 2.66 2.50 2.49 2.46 2.40 2.32 2.31 2.37 2.46 2.45 2.30 2.40 2.57 2.89 3.19 3.31 3.40 3.42 3.29 3.28 3.27 3.30
4.27 3.90 3.56 3.34 3.09 2.91 2.71 2.68 2.77 2.83 3.05 3.16 3.29 3.28 3.25 3.13 3.00 3.04 2.94 2.88 2.91 2.77 2.54 2.39 2.36 2.31 2.26 2.21 2.13 2.31 2.12 1.99 1.98 2.07 2.28 2.54 2.82 2.99 2.98 3.08 3.24 3.33 3.42
3.50 3.20 2.88 2.76 2.61 2.50 2.44 2.45 2.48 2.45 2.56 2.74 2.86 2.96 3.03 3.00 2.96 3.01 3.12 3.08 2.89 2.70 2.60 2.41 2.21 2.12 2.10 2.14 2.12 2.16 1.94 1.83 1.75 1.74 1.75 1.86 2.03 2.26 2.43 2.62 2.81 2.99 3.11
2.72 2.50 2.27 2.10 2.07 2.13 2.09 2.18 2.21 2.23 2.24 2.31 2.38 2.63 2.74 2.72 2.74 2.71 2.77 2.90 2.95 2.77 2.52 2.34 2.20 2.04 1.93 1.85 1.87 1.86 1.62 1.64 1.51 1.48 1.49 1.54 1.60 1.69 1.85 1.96 2.07 2.14 2.23
2.04 1.89 1.81 1.76 1.72 1.79 1.91 1.95 1.90 1.93 2.04 2.07 2.10 2.23 2.28 2.28 2.33 2.39 2.49 2.59 2.80 2.82 2.56 2.25 2.09 1.92 1.73 1.60 1.65 1.46 1.40 1.44 1.29 1.22 1.21 1.24 1.27 1.35 1.44 1.52 1.63 1.65 1.65
1.76 1.70 1.62 1.54 1.48 1.50 1.54 1.64 1.68 1.70 1.76 1.87 1.93 1.95 1.96 1.93 1.99 2.07 2.23 2.39 2.47 2.53 2.43 2.05 1.78 1.64 1.56 1.40 1.47 1.32 1.34 1.35 1.15 1.11 1.08 1.10 1.16 1.23 1.26 1.31 1.35 1.43 1.44
1.46 1.43 1.34 1.26 1.24 1.25 1.31 1.43 1.48 1.52 1.58 1.66 1.74 1.73 1.74 1.74 1.82 1.83 1.86 1.93 2.09 2.19 2.18 1.89 1.70 1.63 1.57 1.46 1.46 1.41 1.36 1.29 1.14 1.14 1.07 1.06 1.10 1.12 1.13 1.16 1.15 1.19 1.30
1.30 1.25 1.15 1.09 1.07 1.08 1.14 1.20 1.23 1.26 1.38 1.42 1.44 1.48 1.48 1.52 1.57 1.57 1.61 1.63 1.73 1.88 1.95 1.93 1.81 1.74 1.66 1.55 1.56 1.56 1.29 1.10 1.08 1.10 1.00 0.95 0.97 0.97 0.99 1.01 1.01 0.98 1.01
1.27 1.17 1.04 1.00 0.99 0.97 0.99 1.04 1.09 1.09 1.13 1.20 1.23 1.32 1.35 1.39 1.36 1.31 1.36 1.45 1.48 1.55 1.76 1.79 1.69 1.63 1.54 1.44 1.57 1.48 1.35 1.42 1.10 1.02 0.93 0.87 0.86 0.83 0.84 0.86 0.88 0.87 0.83
1.19 1.12 1.06 0.98 0.95 0.91 0.92 0.94 0.92 0.96 1.01 1.07 1.10 1.15 1.15 1.18 1.21 1.25 1.27 1.41 1.47 1.59 1.67 1.68 1.64 1.59 1.51 1.43 1.56 1.55 1.51 1.47 1.24 0.93 0.88 0.78 0.81 0.80 0.79 0.79 0.78 0.77 0.75
1.19 1.14 1.08 1.00 0.87 0.79 0.76 0.80 0.82 0.84 0.95 0.98 1.00 0.99 0.98 1.03 1.12 1.13 1.09 1.21 1.38 1.56 1.56 1.56 1.55 1.58 1.51 1.54 1.51 1.46 1.47 1.50 1.38 1.15 1.13 0.93 0.89 0.94 0.95 0.89 0.81 0.79 0.74
1.15 1.11 1.02 0.93 0.82 0.68 0.71 0.71 0.72 0.79 0.89 0.94 0.93 0.92 0.89 0.87 0.91 0.97 0.97 1.04 1.21 1.35 1.44 1.52 1.52 1.55 1.55 1.63 1.64 1.62 1.60 1.63 1.60 1.32 1.34 1.23 1.09 1.17 1.09 0.99 0.90 0.77 0.69
1.20 1.11 1.00 0.95 0.91 0.79 0.62 0.54 0.58 0.70 0.86 0.87 0.87 0.92 0.83 0.76 0.86 0.90 0.92 0.92 0.95 1.00 1.14 1.36 1.53 1.58 1.69 1.83 1.91 1.83 1.75 1.71 1.70 1.48 1.55 1.49 1.34 1.38 1.11 0.96 1.00 0.85 0.74
1.14 1.14 1.11 1.13 1.10 0.87 0.63 0.47 0.52 0.69 0.81 0.75 0.75 0.84 0.91 0.93 0.87 0.88 0.89 0.92 0.95 0.95 0.98 1.07 1.34 1.45 1.48 1.67 1.88 1.92 1.88 1.79 1.76 1.72 1.80 1.77 1.40 1.32 1.16 1.33 1.29 1.09 0.90
1.04 1.07 1.08 1.14 1.12 0.96 0.73 0.57 0.58 0.70 0.78 0.76 0.75 0.73 0.75 0.83 0.82 0.87 0.95 1.10 1.15 1.13 0.92 0.96 1.10 1.19 1.25 1.40 1.54 1.73 1.93 2.02 1.95 1.83 1.80 1.81 1.58 1.43 1.43 1.63 1.54 1.44 1.19
0.93 0.91 0.96 1.05 1.01 0.92 0.72 0.56 0.57 0.61 0.72 0.84 0.92 0.91 0.86 0.80 0.79 0.86 1.01 1.19 1.26 1.23 1.21 1.34 1.45 1.44 1.43 1.49 1.44 1.62 1.91 2.04 2.00 1.94 1.79 1.80 1.79 1.71 1.78 1.79 1.75 1.63 1.54